GW2214 Weather Reports


time (UTC)temp
C
wind
direction
speed
KPH
gust
KPH
rain 1hr
cm
rain 24hr
cm
rain mn
cm
humidity
%
barometer
mb
20260901054617 22 163 0.0 0.0 0.00 0.00 0.00 96 1004.8
20260901053127 22 170 0.0 0.0 0.00 0.00 0.00 96 1005.0
20260901051607 22 170 0.0 0.0 0.00 0.00 0.00 96 1005.1
20260901050105 22 170 0.0 0.0 0.00 0.00 0.00 95 1005.3
20260901044603 22 169 0.0 0.0 0.00 0.00 0.00 95 1005.5
20260901043103 22 169 0.0 0.0 0.00 0.00 0.00 95 1005.6
20260901041605 22 169 0.0 0.0 0.00 0.00 0.00 95 1005.7
20260901040109 22 169 0.0 0.0 0.00 0.00 0.00 94 1005.8
20260901034557 22 169 0.0 0.0 0.00 0.08 0.00 94 1005.9
20260901033104 22 169 0.0 0.0 0.00 0.08 0.00 94 1005.6
20260901031609 22 168 0.0 0.0 0.00 0.08 0.00 93 1005.8
20260901030058 22 182 0.0 0.0 0.00 0.08 0.00 92 1005.8
20260901024556 22 164 0.0 0.0 0.00 0.08 0.00 91 1005.7
20260901023053 22 153 0.0 0.0 0.00 0.08 0.00 90 1005.8
20260901021554 22 150 0.0 0.0 0.00 0.08 0.00 88 1005.9
20260901020053 22 134 0.0 0.0 0.00 0.08 0.00 89 1005.8
20260901014551 22 133 0.0 0.0 0.00 0.08 0.00 88 1005.8
20260901013053 22 133 0.0 0.0 0.00 0.08 0.00 88 1005.7
20260901011553 22 133 0.0 0.0 0.00 0.08 0.00 87 1005.8
20260901010050 22 133 0.0 0.0 0.00 0.08 0.00 86 1005.7
20260901004550 23 133 0.0 0.0 0.00 0.08 0.00 85 1005.7
20260901003049 23 133 0.0 0.0 0.00 0.08 0.00 84 1005.5
20260901001553 23 132 0.0 0.0 0.00 0.08 0.00 83 1005.3
20260901000048 23 132 0.0 0.0 0.00 0.08 0.00 83 1005.1
20260831234546 23 132 0.0 0.0 0.00 0.08 0.00 82 1005.3
20260831233045 23 131 0.0 0.0 0.00 0.08 0.00 82 1005.4
20260831231546 24 130 0.0 0.0 0.00 0.08 0.00 81 1005.5
20260831230059 24 130 0.0 0.0 0.00 0.08 0.00 81 1005.8
20260831224542 25 130 0.0 0.0 0.00 0.08 0.00 78 1005.8
20260831223042 25 130 0.0 0.0 0.00 0.08 0.00 78 1005.8
20260831221548 25 26 0.0 0.0 0.00 0.08 0.00 77 1005.8
20260831220039 25 10 0.0 0.0 0.00 0.08 0.00 77 1006.0
20260831214538 25 320 0.0 0.0 0.00 0.08 0.00 79 1006.1
20260831213038 25 320 0.0 0.0 0.00 0.08 0.00 79 1006.3
20260831211539 25 319 0.0 0.0 0.00 0.08 0.00 77 1006.3
20260831210039 25 301 0.0 0.0 0.00 0.08 0.00 75 1006.2
20260831204536 25 301 0.0 0.0 0.00 0.08 0.00 75 1006.3
20260831203041 26 245 0.0 0.0 0.00 0.08 0.00 73 1006.4
20260831201538 25 20 0.0 0.0 0.00 0.08 0.00 74 1006.6
20260831200037 25 4 0.0 0.0 0.00 0.08 0.00 73 1006.5
20260831194605 25 313 0.0 0.0 0.00 0.08 0.00 74 1006.7
20260831193033 25 278 0.0 0.0 0.00 0.08 0.00 73 1006.9
20260831191532 25 306 0.0 0.0 0.00 0.08 0.00 76 1007.1
20260831190033 25 235 0.0 0.0 0.00 0.08 0.00 76 1007.2
20260831184542 25 301 0.0 0.0 0.00 0.08 0.00 74 1007.3
20260831183030 25 264 0.0 0.0 0.00 0.08 0.00 72 1007.2
20260831181532 25 202 0.0 0.0 0.00 0.08 0.00 75 1007.3
20260831180029 25 195 0.0 0.0 0.00 0.08 0.00 77 1007.2
20260831174546 24 194 0.0 0.0 0.00 0.08 0.00 76 1007.4
20260831173029 25 195 0.0 0.0 0.00 0.08 0.00 75 1007.6
20260831171540 25 101 0.0 0.0 0.00 0.08 0.00 73 1007.6
20260831170055 25 99 0.0 0.0 0.00 0.08 0.00 72 1007.7
20260831164532 25 53 0.0 0.0 0.00 0.08 0.00 73 1007.5
20260831163027 25 30 0.0 0.0 0.00 0.08 0.00 74 1007.5
20260831161520 24 332 0.0 0.0 0.00 0.08 0.00 73 1007.7
20260831160028 24 54 0.0 0.0 0.00 0.08 0.00 75 1007.6
20260831154515 23 60 0.0 0.0 0.00 0.08 0.00 77 1007.6
20260831153013 22 5 0.0 0.0 0.00 0.08 0.00 80 1007.5
20260831151511 22 45 0.0 0.0 0.00 0.08 0.00 81 1007.7
20260831150010 22 24 0.0 0.0 0.00 0.08 0.00 79 1007.8
20260831144522 22 25 0.0 0.0 0.00 0.08 0.00 79 1008.2
20260831143009 22 30 0.0 0.0 0.00 0.08 0.00 81 1008.1
20260831141512 22 30 0.0 0.0 0.00 0.08 0.00 80 1007.9
20260831140006 22 38 0.0 0.0 0.00 0.08 0.00 81 1008.0
20260831134505 22 25 0.0 0.0 0.00 0.08 0.00 83 1007.9
20260831133003 22 30 0.0 0.0 0.00 0.08 0.00 85 1007.8
20260831131501 21 29 0.0 0.0 0.00 0.08 0.00 86 1007.8
20260831130100 21 25 0.0 0.0 0.00 0.08 0.00 86 1007.8
20260831124559 21 33 0.0 0.0 0.00 0.08 0.00 86 1007.9
20260831123058 21 39 0.0 0.0 0.00 0.08 0.00 87 1007.9
20260831121556 21 27 0.0 0.0 0.00 0.08 0.00 88 1007.7
20260831120056 21 112 0.0 0.0 0.00 0.08 0.00 89 1007.8
20260831114555 21 16 0.0 0.0 0.00 0.08 0.00 90 1007.8
20260831113059 20 30 0.0 0.0 0.00 0.08 0.00 91 1007.5
20260831111556 20 80 0.0 0.0 0.00 0.08 0.00 92 1007.4
20260831110051 21 134 0.0 0.0 0.00 0.08 0.00 92 1007.2
20260831104551 21 54 0.0 0.0 0.00 0.08 0.00 92 1007.2
20260831103103 21 54 0.0 0.0 0.00 0.08 0.00 91 1007.1
20260831101556 21 54 0.0 0.0 0.00 0.08 0.00 91 1006.9
20260831100046 21 53 0.0 0.0 0.00 0.08 0.00 92 1006.7
20260831094546 21 37 0.0 0.0 0.00 0.08 0.00 92 1006.8
20260831093048 21 37 0.0 0.0 0.00 0.08 0.00 92 1006.7
20260831091544 21 49 0.0 0.0 0.00 0.08 0.00 93 1006.1
20260831090057 21 21 0.0 0.0 0.00 0.08 0.00 94 1006.2
20260831084546 21 30 0.0 0.0 0.00 0.08 0.00 95 1005.9
20260831083041 21 20 0.0 0.0 0.00 0.08 0.00 96 1006.0
20260831081538 21 15 0.0 0.0 0.00 0.08 0.00 97 1006.1
20260831080052 21 6 0.0 0.0 0.00 0.08 0.00 96 1006.1
20260831074535 20 6 0.0 0.0 0.00 0.08 0.00 97 1006.2
20260831073035 20 351 0.0 0.0 0.00 0.08 0.00 97 1006.4
20260831071532 20 351 0.0 0.0 0.00 0.08 0.00 96 1006.4
20260831070034 20 351 0.0 0.0 0.00 0.08 0.00 96 1006.3
20260831064532 20 336 0.0 0.0 0.00 0.08 0.00 96 1006.4
20260831063031 20 278 0.0 0.0 0.00 0.08 0.00 96 1006.3
20260831061529 20 278 0.0 0.0 0.00 0.08 0.00 96 1006.4
20260831060029 20 278 0.0 0.0 0.00 0.08 0.00 96 1006.6